OK2ZAW-21 Weather Reports


time (UTC)temp
C
wind
direction
speed
KPH
gust
KPH
rain 1hr
cm
rain 24hr
cm
rain mn
cm
humidity
%
barometer
mb
20260905195052 14 225 4.8 4.8 0.00 0.00 0.00 99 1025.1
20260905194542 14 225 4.8 4.8 0.00 0.00 0.00 99 1025.1
20260905194031 14 229 3.2 4.8 0.00 0.00 0.00 99 1025.0
20260905193520 14 270 3.2 4.8 0.00 0.00 0.00 98 1025.0
20260905193010 14 269 3.2 3.2 0.00 0.00 0.00 97 1024.9
20260905192459 14 225 3.2 4.8 0.00 0.00 0.00 96 1025.0
20260905191949 14 226 3.2 4.8 0.00 0.00 0.00 96 1024.9
20260905191438 14 270 3.2 4.8 0.00 0.00 0.00 96 1024.9
20260905190928 14 270 3.2 4.8 0.00 0.00 0.00 97 1025.0
20260905190417 14 270 4.8 4.8 0.00 0.00 0.00 96 1024.9
20260905185907 14 270 3.2 4.8 0.00 0.00 0.00 97 1024.6
20260905185356 14 270 3.2 4.8 0.00 0.00 0.00 97 1024.6
20260905184845 15 270 3.2 4.8 0.00 0.00 0.00 96 1024.5
20260905184335 15 270 3.2 6.4 0.00 0.00 0.00 95 1024.4
20260905183824 15 270 4.8 6.4 0.00 0.00 0.00 95 1024.3
20260905183313 15 266 4.8 11.3 0.00 0.00 0.00 95 1024.1
20260905182803 15 260 6.4 9.7 0.00 0.00 0.00 96 1024.1
20260905182252 15 258 4.8 6.4 0.00 0.00 0.00 10 1024.0
20260905181741 15 270 4.8 9.7 0.00 0.00 0.00 10 1024.0
20260905181231 16 293 4.8 8.0 0.00 0.00 0.00 98 1023.9
20260905180720 16 315 4.8 8.0 0.00 0.00 0.00 97 1023.8
20260905175658 16 315 8.0 11.3 0.00 0.00 0.00 92 1023.6
20260905174637 16 341 8.0 12.9 0.00 0.00 0.00 88 1023.4
20260905174126 16 0 9.7 11.3 0.00 0.00 0.00 86 1023.2
20260905173615 16 0 9.7 14.5 0.00 0.00 0.00 84 1023.1
20260905173104 16 316 8.0 11.3 0.00 0.00 0.00 83 1023.1
20260905172554 17 325 9.7 16.1 0.00 0.00 0.00 81 1023.0
20260905172043 17 325 8.0 12.9 0.00 0.00 0.00 80 1023.1
20260905171532 17 315 9.7 12.9 0.00 0.00 0.00 78 1023.0
20260905171021 17 327 11.3 0.0 0.00 0.00 0.00 74 1022.9
20260905170510 18 315 12.9 24.1 0.00 0.00 0.00 70 1022.8
20260905165959 17 328 17.7 29.0 0.00 0.00 0.00 68 1022.2
20260905165448 18 344 9.7 14.5 0.00 0.00 0.00 67 1022.7
20260905164937 18 342 12.9 17.7 0.00 0.00 0.00 66 1022.5
20260905164426 18 319 11.3 16.1 0.00 0.00 0.00 65 1022.0
20260905163914 18 325 14.5 22.5 0.00 0.00 0.00 64 1022.4
20260905163403 19 323 12.9 19.3 0.00 0.00 0.00 63 1022.5
20260905162341 18 315 9.7 0.0 0.00 0.00 0.00 64 1021.9
20260905161830 19 315 6.4 9.7 0.00 0.00 0.00 67 1022.6
20260905161319 18 347 9.7 12.9 0.00 0.00 0.00 66 1022.5
20260905160808 18 344 9.7 16.1 0.00 0.00 0.00 71 1022.5
20260905160257 18 350 8.0 9.7 0.00 0.00 0.00 73 1022.6
20260905155746 18 328 9.7 0.0 0.00 0.00 0.00 73 1022.5
20260905155235 18 328 9.7 12.9 0.00 0.00 0.00 74 1022.5
20260905154724 17 319 8.0 12.9 0.00 0.00 0.00 73 1022.4
20260905154213 18 315 11.3 16.1 0.00 0.00 0.00 68 1022.3
20260905153701 18 356 12.9 17.7 0.00 0.00 0.00 67 1022.3
20260905153150 18 350 12.9 17.7 0.00 0.00 0.00 64 1022.4
20260905152639 18 341 11.3 16.1 0.00 0.00 0.00 63 1022.2
20260905152128 18 334 11.3 0.0 0.00 0.00 0.00 64 1022.3
20260905151617 18 315 12.9 17.7 0.00 0.00 0.00 65 1022.3
20260905150044 19 342 12.9 16.1 0.00 0.00 0.00 56 1022.1
20260905145533 18 330 12.9 16.1 0.00 0.00 0.00 57 1022.0
20260905145021 19 334 14.5 24.1 0.00 0.00 0.00 58 1022.2
20260905144510 19 321 11.3 16.1 0.00 0.00 0.00 56 1022.1
20260905143959 19 325 11.3 16.1 0.00 0.00 0.00 58 1022.2
20260905143448 18 322 12.9 24.1 0.00 0.00 0.00 61 1022.1
20260905142936 18 315 9.7 12.9 0.00 0.00 0.00 59 1022.3
20260905142425 18 350 11.3 16.1 0.00 0.00 0.00 64 1022.4
20260905141914 17 0 12.9 24.1 0.00 0.00 0.00 64 1022.5
20260905141403 18 345 11.3 0.0 0.00 0.00 0.00 61 1022.4
20260905140341 18 315 14.5 24.1 0.00 0.00 0.00 59 1022.1
20260905135830 18 327 12.9 19.3 0.00 0.00 0.00 62 1022.4
20260905135318 18 315 9.7 12.9 0.00 0.00 0.00 63 1022.3
20260905134807 18 344 11.3 14.5 0.00 0.00 0.00 62 1022.4
20260905134256 18 333 9.7 14.5 0.00 0.00 0.00 60 1022.5
20260905133745 18 0 12.9 19.3 0.00 0.00 0.00 61 1022.4
20260905133234 19 319 11.3 25.7 0.00 0.00 0.00 60 1022.4
20260905132722 18 315 8.0 11.3 0.00 0.00 0.00 65 1022.6
20260905132211 18 315 11.3 16.1 0.00 0.00 0.00 65 1022.6
20260905131700 18 315 12.9 19.3 0.00 0.00 0.00 64 1021.9
20260905131149 18 316 12.9 17.7 0.00 0.00 0.00 61 1022.5
20260905130638 18 331 9.7 16.1 0.00 0.00 0.00 61 1022.4
20260905130126 19 315 9.7 12.9 0.00 0.00 0.00 60 1022.5
20260905125615 18 315 11.3 14.5 0.00 0.00 0.00 62 1022.7
20260905125104 17 325 11.3 16.1 0.00 0.00 0.00 64 1022.5
20260905124042 18 322 11.3 25.7 0.00 0.00 0.00 60 1022.3
20260905123530 19 348 9.7 14.5 0.00 0.00 0.00 61 1022.5
20260905123019 18 342 11.3 16.1 0.00 0.00 0.00 63 1022.5
20260905122508 18 339 11.3 16.1 0.00 0.00 0.00 64 1022.7
20260905121956 18 321 11.3 14.5 0.00 0.00 0.00 65 1022.6
20260905121445 18 315 11.3 16.1 0.00 0.00 0.00 68 1022.7
20260905120934 18 315 9.7 11.3 0.00 0.00 0.00 66 1022.5
20260905120423 18 315 11.3 16.1 0.00 0.00 0.00 70 1022.6
20260905115911 18 315 9.7 16.1 0.00 0.00 0.00 71 1022.6
20260905115400 18 334 9.7 12.9 0.00 0.00 0.00 72 1022.7
20260905114849 19 325 11.3 14.5 0.00 0.00 0.00 69 1022.7
20260905114338 18 315 11.3 19.3 0.00 0.00 0.00 70 1022.8
20260905113826 18 315 12.9 22.5 0.00 0.00 0.00 69 1022.6
20260905113315 18 315 9.7 14.5 0.00 0.00 0.00 71 1022.7
20260905112253 18 315 9.7 16.1 0.00 0.00 0.00 78 1022.8
20260905111741 18 315 11.3 16.1 0.00 0.00 0.00 79 1022.7
20260905111230 18 315 11.3 0.0 0.00 0.00 0.00 80 1022.7
20260905110719 17 315 8.0 11.3 0.00 0.00 0.00 87 1022.7
20260905110208 17 315 11.3 16.1 0.00 0.00 0.00 93 1022.8
20260905105657 17 315 11.3 24.1 0.00 0.00 0.00 88 1022.7
20260905105146 18 315 11.3 19.3 0.00 0.00 0.00 88 1022.7
20260905104124 16 315 12.9 16.1 0.00 0.00 0.00 91 1022.4
20260905103613 17 319 12.9 17.7 0.00 0.00 0.00 95 1022.5
20260905103102 16 359 9.7 12.9 0.00 0.00 0.00 10 1022.6
20260905102551 17 339 12.9 17.7 0.00 0.00 0.00 10 1022.6
20260905102040 17 334 9.7 14.5 0.00 0.00 0.00 10 1022.6
20260905101529 17 356 8.0 9.7 0.00 0.00 0.00 10 1022.7
20260905101018 16 330 9.7 0.0 0.00 0.00 0.00 10 1022.8
20260905100507 17 318 11.3 16.1 0.00 0.00 0.00 10 1022.8
20260905095956 16 279 9.7 12.9 0.00 0.00 0.00 10 1022.8
20260905094934 16 348 9.7 17.7 0.00 0.00 0.00 10 1022.9
20260905094423 16 306 8.0 9.7 0.00 0.00 0.00 10 1023.0
20260905093912 16 315 9.7 12.9 0.00 0.00 0.00 10 1023.0
20260905093402 16 315 9.7 16.1 0.00 0.00 0.00 10 1022.9
20260905092340 15 344 11.3 14.5 0.00 0.00 0.00 10 1023.0
20260905091829 15 315 9.7 14.5 0.00 0.00 0.00 10 1022.9
20260905091319 15 327 9.7 12.9 0.00 0.00 0.00 10 1022.9
20260905090808 14 318 9.7 14.5 0.00 0.00 0.00 10 1022.6
20260905090257 15 336 8.0 11.3 0.00 0.00 0.00 10 1023.0
20260905085747 14 315 8.0 11.3 0.00 0.00 0.00 10 1023.0
20260905085236 13 344 9.7 14.5 0.00 0.00 0.00 10 1023.0
20260905084725 13 322 9.7 16.1 0.00 0.00 0.00 10 1022.8
20260905084215 13 325 9.7 16.1 0.00 0.00 0.00 10 1022.9
20260905083704 13 328 9.7 16.1 0.00 0.00 0.00 10 1022.9
20260905083154 13 315 9.7 12.9 0.00 0.00 0.00 10 1022.9
20260905082643 13 319 6.4 9.7 0.00 0.00 0.00 10 1023.0
20260905082133 12 347 8.0 12.9 0.00 0.00 0.00 10 1023.0
20260905081622 12 318 8.0 12.9 0.00 0.00 0.00 10 1022.8
20260905081112 12 336 8.0 11.3 0.00 0.00 0.00 10 1022.8
20260905080601 12 351 8.0 14.5 0.00 0.00 0.00 10 1022.5
20260905080051 12 322 6.4 9.7 0.00 0.00 0.00 10 1022.5
20260905075541 12 318 6.4 9.7 0.00 0.00 0.00 10 1022.6
20260905074520 12 305 6.4 8.0 0.00 0.00 0.00 10 1022.2
20260905074009 12 289 6.4 8.0 0.00 0.00 0.00 10 1022.3
20260905073459 12 315 4.8 6.4 0.00 0.00 0.00 10 1022.2
20260905072949 11 315 4.8 8.0 0.00 0.00 0.00 10 1022.0
20260905072439 11 315 4.8 8.0 0.00 0.00 0.00 10 1021.9
20260905071928 11 315 4.8 8.0 0.00 0.00 0.00 10 1021.7
20260905071418 11 277 4.8 6.4 0.00 0.00 0.00 10 1021.7
20260905070908 11 342 4.8 6.4 0.00 0.00 0.00 10 1021.8
20260905070357 11 0 6.4 8.0 0.00 0.00 0.00 10 1021.9
20260905065847 11 0 4.8 8.0 0.00 0.00 0.00 10 1021.9
20260905065337 11 0 6.4 8.0 0.00 0.00 0.00 10 1022.1
20260905064827 11 334 6.4 8.0 0.00 0.00 0.00 10 1021.7
20260905064317 11 341 8.0 12.9 0.00 0.00 0.00 10 1021.8
20260905063806 11 331 9.7 12.9 0.00 0.00 0.00 10 1021.8
20260905063256 11 324 11.3 16.1 0.00 0.00 0.00 10 1021.7
20260905062746 10 328 12.9 0.0 0.00 0.00 0.00 10 1021.6
20260905062236 10 322 11.3 0.0 0.00 0.00 0.00 10 1021.3
20260905061726 10 321 9.7 12.9 0.00 0.00 0.00 10 1021.6
20260905061215 10 321 9.7 12.9 0.00 0.00 0.00 10 1021.4
20260905060705 10 315 11.3 16.1 0.00 0.00 0.00 10 1020.8
20260905060155 10 318 9.7 11.3 0.00 0.00 0.00 10 1021.3
20260905055645 10 350 6.4 8.0 0.00 0.00 0.00 10 1021.8
20260905055135 10 328 6.4 8.0 0.00 0.00 0.00 10 1021.7
20260905054625 10 315 6.4 6.4 0.00 0.00 0.00 10 1021.8
20260905054114 10 315 8.0 9.7 0.00 0.00 0.00 10 1021.8
20260905053604 10 315 8.0 9.7 0.00 0.00 0.00 10 1021.9
20260905053054 11 315 8.0 11.3 0.00 0.00 0.00 10 1021.9
20260905052544 11 315 8.0 12.9 0.00 0.00 0.00 10 1021.8
20260905052033 11 315 8.0 11.3 0.00 0.00 0.00 10 1021.5
20260905051523 11 315 8.0 12.9 0.00 0.00 0.00 10 1021.6
20260905051013 11 315 6.4 8.0 0.00 0.00 0.00 10 1021.5
20260905050503 11 315 6.4 11.3 0.00 0.00 0.00 10 1021.3
20260905045952 11 315 8.0 9.7 0.00 0.00 0.00 10 1021.3
20260905045442 12 325 8.0 9.7 0.00 0.00 0.00 10 1021.2
20260905044932 12 336 6.4 9.7 0.00 0.00 0.00 10 1021.4
20260905044421 12 353 6.4 8.0 0.00 0.00 0.00 10 1021.1
20260905043911 12 270 6.4 8.0 0.00 0.00 0.00 10 1021.0
20260905043401 12 270 6.4 9.7 0.00 0.00 0.00 10 1021.0
20260905042850 12 270 6.4 8.0 0.00 0.00 0.00 10 1021.1
20260905042340 12 270 6.4 9.7 0.00 0.00 0.00 10 1020.9
20260905041830 12 270 6.4 8.0 0.00 0.00 0.00 10 1020.8
20260905041319 12 270 6.4 8.0 0.00 0.00 0.00 10 1020.6
20260905040809 12 270 6.4 8.0 0.00 0.00 0.00 10 1020.6
20260905040259 12 270 4.8 6.4 0.00 0.00 0.00 10 1020.5
20260905035748 12 270 4.8 6.4 0.00 0.00 0.00 10 1020.3
20260905035238 12 270 6.4 9.7 0.00 0.00 0.00 10 1020.1
20260905034728 12 270 4.8 6.4 0.00 0.00 0.00 10 1020.2
20260905034217 12 270 6.4 8.0 0.00 0.00 0.00 10 1019.9
20260905033707 12 270 8.0 11.3 0.00 0.00 0.00 10 1020.7
20260905033157 12 270 4.8 8.0 0.00 0.00 0.00 10 1019.9
20260905032646 12 270 4.8 6.4 0.00 0.00 0.00 10 1019.9
20260905032136 12 270 6.4 8.0 0.00 0.00 0.00 10 1019.9
20260905031626 12 270 6.4 8.0 0.00 0.00 0.00 10 1019.7
20260905031115 12 270 8.0 11.3 0.00 0.00 0.00 10 1019.6
20260905030605 13 270 6.4 9.7 0.00 0.00 0.00 10 1019.9
20260905030054 13 270 8.0 11.3 0.00 0.00 0.00 10 1020.1
20260905025544 13 270 8.0 9.7 0.00 0.00 0.00 10 1019.8
20260905025033 13 270 6.4 9.7 0.00 0.00 0.00 10 1019.6
20260905024523 13 270 4.8 8.0 0.00 0.00 0.00 10 1018.7
20260905024012 14 270 4.8 6.4 0.00 0.00 0.00 10 1019.0
20260905023501 14 270 6.4 8.0 0.00 0.00 0.00 10 1019.0
20260905022951 14 270 6.4 6.4 0.00 0.00 0.00 10 1019.0
20260905022440 15 270 4.8 8.0 0.00 0.00 0.00 10 1018.8
20260905021930 15 270 6.4 8.0 0.00 0.00 0.00 10 1019.0
20260905021419 15 270 4.8 6.4 0.00 0.00 0.00 10 1019.2
20260905020908 15 270 4.8 6.4 0.00 0.00 0.00 10 1019.2
20260905020358 15 270 4.8 6.4 0.00 0.00 0.00 10 1018.9
20260905015847 15 270 6.4 9.7 0.00 0.00 0.00 10 1018.7
20260905015336 15 270 4.8 6.4 0.00 0.00 0.00 10 1018.7
20260905014826 15 270 6.4 8.0 0.00 0.00 0.00 10 1018.7
20260905014315 15 270 6.4 9.7 0.00 0.00 0.00 10 1018.7
20260905013804 15 270 8.0 12.9 0.00 0.00 0.00 10 1018.8
20260905013254 15 270 6.4 12.9 0.00 0.00 0.00 10 1018.8
20260905012743 15 270 4.8 9.7 0.00 0.00 0.00 10 1018.6
20260905012232 15 270 6.4 9.7 0.00 0.00 0.00 10 1018.8
20260905011722 16 270 9.7 17.7 0.00 0.00 0.00 10 1018.5
20260905011211 16 270 8.0 11.3 0.00 0.00 0.00 10 1018.7
20260905010700 16 257 8.0 9.7 0.00 0.00 0.00 10 1018.6
20260905010149 16 229 8.0 11.3 0.00 0.00 0.00 10 1018.5
20260905005639 16 270 6.4 9.7 0.00 0.00 0.00 10 1018.5
20260905005128 16 229 8.0 9.7 0.00 0.00 0.00 10 1018.4
20260905004617 16 238 8.0 12.9 0.00 0.00 0.00 10 1018.3
20260905004106 16 270 9.7 0.0 0.00 0.00 0.00 10 1018.2
20260905003555 17 251 14.5 22.5 0.00 0.00 0.00 10 1017.9
20260905003044 17 263 12.9 16.1 0.00 0.00 0.00 10 1017.8
20260905002533 18 293 12.9 19.3 0.00 0.00 0.00 98 1017.5
20260905002022 20 315 6.4 9.7 0.00 0.00 0.00 86 1017.1
20260905001511 20 330 8.0 11.3 0.00 0.00 0.00 81 1016.7
20260905001000 20 318 9.7 16.1 0.00 0.00 0.00 79 1016.4
20260905000449 21 331 11.3 16.1 0.00 0.00 0.00 77 1016.2
20260904235938 21 327 11.3 16.1 0.00 0.00 0.00 75 1016.1
20260904235426 21 328 11.3 17.7 0.00 0.00 0.00 75 1016.0
20260904234915 21 321 12.9 19.3 0.00 0.00 0.00 74 1015.9
20260904234404 21 315 11.3 12.9 0.00 0.00 0.00 73 1016.0
20260904233853 21 327 11.3 16.1 0.00 0.00 0.00 73 1015.9
20260904233341 21 325 11.3 16.1 0.00 0.00 0.00 72 1016.0
20260904232830 21 325 11.3 12.9 0.00 0.00 0.00 72 1015.4
20260904232319 21 333 11.3 16.1 0.00 0.00 0.00 71 1015.9
20260904231808 21 321 9.7 14.5 0.00 0.00 0.00 71 1016.0
20260904231256 21 328 9.7 0.0 0.00 0.00 0.00 70 1016.0
20260904230745 21 315 11.3 12.9 0.00 0.00 0.00 69 1015.8
20260904230234 21 338 9.7 12.9 0.00 0.00 0.00 69 1015.9
20260904225723 21 350 9.7 12.9 0.00 0.00 0.00 68 1015.8
20260904225211 21 315 11.3 16.1 0.00 0.00 0.00 68 1015.8
20260904224700 21 324 11.3 12.9 0.00 0.00 0.00 68 1015.8
20260904224149 21 315 11.3 16.1 0.00 0.00 0.00 68 1015.9
20260904223637 21 315 11.3 0.0 0.00 0.00 0.00 68 1015.8
20260904223126 21 341 9.7 11.3 0.00 0.00 0.00 68 1015.8
20260904222615 21 325 11.3 16.1 0.00 0.00 0.00 67 1015.8
20260904222104 21 321 11.3 0.0 0.00 0.00 0.00 67 1015.8
20260904221553 21 333 11.3 12.9 0.00 0.00 0.00 67 1015.9
20260904221041 21 325 11.3 0.0 0.00 0.00 0.00 67 1015.9
20260904220530 21 330 11.3 12.9 0.00 0.00 0.00 67 1015.8
20260904220019 21 333 11.3 14.5 0.00 0.00 0.00 66 1015.8
20260904215508 21 319 11.3 0.0 0.00 0.00 0.00 66 1015.2
20260904214956 22 321 11.3 0.0 0.00 0.00 0.00 66 1015.8
20260904214445 21 350 9.7 12.9 0.00 0.00 0.00 67 1015.9
20260904213934 21 325 9.7 11.3 0.00 0.00 0.00 67 1015.9
20260904213423 21 330 9.7 14.5 0.00 0.00 0.00 66 1015.9
20260904212911 21 334 9.7 12.9 0.00 0.00 0.00 67 1015.8
20260904212400 21 331 9.7 11.3 0.00 0.00 0.00 67 1015.9
20260904211849 21 319 9.7 12.9 0.00 0.00 0.00 67 1015.9
20260904211338 21 322 9.7 11.3 0.00 0.00 0.00 67 1015.9
20260904210826 21 318 8.0 9.7 0.00 0.00 0.00 67 1015.9
20260904210315 21 329 8.0 9.7 0.00 0.00 0.00 66 1016.0
20260904205804 21 318 8.0 11.3 0.00 0.00 0.00 66 1016.0
20260904205252 21 318 8.0 11.3 0.00 0.00 0.00 65 1016.0
20260904204741 21 321 8.0 9.7 0.00 0.00 0.00 66 1016.0
20260904204230 21 324 8.0 11.3 0.00 0.00 0.00 65 1016.0
20260904203718 21 321 8.0 11.3 0.00 0.00 0.00 64 1016.1
20260904203207 21 333 8.0 11.3 0.00 0.00 0.00 64 1016.0
20260904202656 21 318 9.7 11.3 0.00 0.00 0.00 64 1016.0
20260904202144 21 324 8.0 9.7 0.00 0.00 0.00 64 1016.0
20260904201633 21 318 8.0 11.3 0.00 0.00 0.00 64 1016.1
20260904201122 22 321 8.0 11.3 0.00 0.00 0.00 64 1016.2
20260904200610 22 332 9.7 11.3 0.00 0.00 0.00 63 1016.1
20260904200059 22 327 8.0 11.3 0.00 0.00 0.00 62 1016.2
20260904195548 22 330 8.0 9.7 0.00 0.00 0.00 61 1016.3